TimeCST,TemperatureF,Dew PointF,Humidity,Sea Level PressureIn,VisibilityMPH,Wind Direction,Wind SpeedMPH,Gust SpeedMPH,PrecipitationIn,Events,Conditions,WindDirDegrees,DateUTC
12:53 AM,25.0,19.0,78,29.96,3.0,NNW,10.4,-,0.00,Snow,Light Snow,340,2012-12-20 06:53:00
1:53 AM,24.1,18.0,77,29.97,2.5,North,12.7,-,0.00,Snow,Light Snow,350,2012-12-20 07:53:00
2:11 AM,23.0,17.6,80,29.93,2.5,North,10.4,-,0.00,Snow,Light Snow,350,2012-12-20 08:11:00
2:53 AM,23.0,18.0,81,29.96,2.5,North,10.4,-,0.00,Snow,Light Snow,350,2012-12-20 08:53:00
2:57 AM,23.0,17.6,80,29.92,3.0,North,10.4,-,0.00,Snow,Light Snow,350,2012-12-20 08:57:00
3:53 AM,23.0,18.0,81,29.95,5.0,North,11.5,-,0.00,,Haze,360,2012-12-20 09:53:00
4:53 AM,23.0,18.0,81,29.92,4.0,NNW,10.4,-,0.00,,Haze,340,2012-12-20 10:53:00
5:53 AM,23.0,17.1,78,29.91,8.0,North,12.7,-,N/A,,Overcast,350,2012-12-20 11:53:00
6:53 AM,21.9,17.1,82,29.91,3.0,North,15.0,21.9,0.00,Snow,Light Snow,350,2012-12-20 12:53:00
7:05 AM,21.2,17.6,86,29.87,2.5,North,12.7,-,0.00,Snow,Light Snow,350,2012-12-20 13:05:00
7:12 AM,21.2,17.6,86,29.86,3.0,NNW,15.0,21.9,0.00,Snow,Light Snow,340,2012-12-20 13:12:00
7:53 AM,21.9,17.1,82,29.91,4.0,NNW,15.0,23.0,0.00,,Haze,340,2012-12-20 13:53:00
8:53 AM,23.0,17.1,78,29.92,7.0,NNW,16.1,23.0,N/A,,Overcast,340,2012-12-20 14:53:00
9:53 AM,24.1,18.0,77,29.91,6.0,North,18.4,28.8,N/A,,Haze,350,2012-12-20 15:53:00
10:53 AM,25.0,19.0,78,29.90,8.0,North,18.4,27.6,N/A,,Overcast,360,2012-12-20 16:53:00
11:12 AM,24.8,19.4,80,29.86,6.0,North,18.4,25.3,N/A,,Haze,350,2012-12-20 17:12:00
11:53 AM,25.0,18.0,75,29.89,10.0,North,16.1,26.5,N/A,,Overcast,350,2012-12-20 17:53:00
12:53 PM,26.1,18.0,71,29.87,10.0,North,13.8,24.2,N/A,,Overcast,350,2012-12-20 18:53:00
1:53 PM,26.1,18.0,71,29.87,10.0,NNW,17.3,28.8,N/A,,Overcast,330,2012-12-20 19:53:00
2:53 PM,25.0,16.0,69,29.88,10.0,NNW,19.6,25.3,N/A,,Mostly Cloudy,330,2012-12-20 20:53:00
3:12 PM,24.8,15.8,69,29.84,10.0,NNW,23.0,31.1,N/A,,Scattered Clouds,330,2012-12-20 21:12:00
3:53 PM,24.1,15.1,69,29.89,10.0,NNW,21.9,29.9,N/A,,Clear,330,2012-12-20 21:53:00
4:53 PM,21.9,14.0,72,29.93,10.0,NNW,17.3,34.5,N/A,,Clear,330,2012-12-20 22:53:00
5:53 PM,19.9,12.9,74,29.96,10.0,NNW,15.0,24.2,N/A,,Clear,330,2012-12-20 23:53:00
6:21 PM,19.4,12.2,74,29.93,10.0,NNW,16.1,26.5,N/A,,Mostly Cloudy,330,2012-12-21 00:21:00
6:53 PM,19.9,12.9,74,29.99,10.0,NNW,16.1,23.0,N/A,,Overcast,330,2012-12-21 00:53:00
7:21 PM,19.4,12.2,74,29.95,10.0,NNW,19.6,27.6,N/A,,Overcast,330,2012-12-21 01:21:00
7:53 PM,19.0,12.9,77,30.00,10.0,NNW,13.8,25.3,N/A,,Overcast,330,2012-12-21 01:53:00
8:53 PM,18.0,12.0,78,30.02,10.0,NNW,13.8,23.0,N/A,,Mostly Cloudy,330,2012-12-21 02:53:00
9:14 PM,17.6,10.4,73,29.99,10.0,NW,15.0,23.0,N/A,,Scattered Clouds,320,2012-12-21 03:14:00
9:53 PM,15.1,9.0,77,30.05,10.0,NNW,17.3,24.2,N/A,,Partly Cloudy,340,2012-12-21 03:53:00
10:53 PM,14.0,8.1,77,30.07,10.0,NNW,15.0,25.3,N/A,,Clear,330,2012-12-21 04:53:00
11:53 PM,14.0,7.0,74,30.10,10.0,NNW,13.8,21.9,N/A,,Clear,330,2012-12-21 05:53:00